EN

Hourly Weather Lack

Today, 25 July, Sunday

Time Temperature Precipitation Wind Pressure Humidity
00:00 +19°C° 0 mm 2 mps 748 mmHg 72%
01:00 +19°C° 0 mm 2 mps 748 mmHg 75%
02:00 +18°C° 0 mm 2 mps 748 mmHg 77%
03:00 +19°C° 0 mm 2 mps 748 mmHg 76%
04:00 +19°C° 0 mm 2 mps 748 mmHg 75%
05:00 +19°C° 0 mm 2 mps 748 mmHg 73%
06:00 +20°C° 0 mm 3 mps 748 mmHg 69%
07:00 +21°C° 0 mm 3 mps 748 mmHg 64%
08:00 +22°C° 0 mm 3 mps 748 mmHg 64%
09:00 +24°C° 0 mm 3 mps 748 mmHg 59%
10:00 +25°C° 0 mm 4 mps 748 mmHg 53%
11:00 +27°C° 0 mm 4 mps 748 mmHg 47%
12:00 +28°C° 0 mm 4 mps 748 mmHg 44%
13:00 +29°C° 0 mm 4 mps 748 mmHg 40%
14:00 +30°C° 0 mm 4 mps 748 mmHg 36%
15:00 +29°C° 0 mm 3 mps 748 mmHg 40%
16:00 +29°C° 0 mm 3 mps 748 mmHg 43%
17:00 +28°C° 0 mm 3 mps 748 mmHg 46%
18:00 +27°C° 0 mm 3 mps 748 mmHg 50%
19:00 +26°C° 0 mm 3 mps 748 mmHg 54%
20:00 +24°C° 0 mm 3 mps 748 mmHg 58%
21:00 +22°C° 0 mm 3 mps 748 mmHg 62%
22:00 +21°C° 0 mm 3 mps 748 mmHg 65%
23:00 +20°C° 0 mm 3 mps 748 mmHg 69%

Tomorrow, 26 July, Monday

Time Temperature Precipitation Wind Pressure Humidity
00:00 +20°C° 0 mm 3 mps 748 mmHg 71%
01:00 +20°C° 0 mm 3 mps 748 mmHg 73%
02:00 +19°C° 0 mm 3 mps 748 mmHg 75%
03:00 +20°C° 0 mm 4 mps 747 mmHg 73%
04:00 +20°C° 0 mm 4 mps 747 mmHg 71%
05:00 +20°C° 0 mm 4 mps 747 mmHg 69%
06:00 +21°C° 0 mm 5 mps 747 mmHg 66%
07:00 +22°C° 0 mm 5 mps 747 mmHg 63%
08:00 +23°C° 0 mm 5 mps 747 mmHg 60%
09:00 +25°C° 0 mm 5 mps 747 mmHg 58%
10:00 +26°C° 0 mm 5 mps 748 mmHg 56%
11:00 +27°C° 0 mm 5 mps 748 mmHg 54%
12:00 +27°C° 0 mm 5 mps 747 mmHg 55%
13:00 +27°C° 0 mm 6 mps 747 mmHg 55%
14:00 +27°C° 0 mm 6 mps 747 mmHg 55%
15:00 +28°C° 0.1 mm 5 mps 747 mmHg 54%
16:00 +28°C° 0.1 mm 5 mps 746 mmHg 54%
17:00 +29°C° 0.1 mm 5 mps 746 mmHg 53%
18:00 +27°C° 1.7 mm 5 mps 746 mmHg 66%
19:00 +24°C° 1.7 mm 6 mps 746 mmHg 78%
20:00 +21°C° 1.7 mm 6 mps 746 mmHg 90%
21:00 +21°C° 0.8 mm 6 mps 746 mmHg 91%
22:00 +21°C° 0.8 mm 6 mps 746 mmHg 91%
23:00 +21°C° 0.8 mm 6 mps 746 mmHg 92%

Day after tomorrow, 27 July, Tuesday

Time Temperature Precipitation Wind Pressure Humidity
00:00 +20°C° 0.3 mm 5 mps 746 mmHg 92%
01:00 +20°C° 0.3 mm 5 mps 746 mmHg 92%
02:00 +19°C° 0.3 mm 4 mps 746 mmHg 92%
03:00 +19°C° 0 mm 4 mps 745 mmHg 93%
04:00 +18°C° 0 mm 3 mps 745 mmHg 94%
05:00 +18°C° 0 mm 3 mps 745 mmHg 96%
06:00 +20°C° 0 mm 2 mps 745 mmHg 90%
07:00 +21°C° 0 mm 2 mps 745 mmHg 84%
08:00 +24°C° 0 mm 2 mps 745 mmHg 78%
09:00 +26°C° 0 mm 2 mps 745 mmHg 70%
10:00 +28°C° 0 mm 3 mps 745 mmHg 62%
11:00 +30°C° 0 mm 3 mps 745 mmHg 54%
12:00 +30°C° 0.2 mm 4 mps 745 mmHg 55%
13:00 +30°C° 0.2 mm 4 mps 745 mmHg 55%
14:00 +30°C° 0.2 mm 5 mps 745 mmHg 55%
15:00 +29°C° 0.4 mm 5 mps 745 mmHg 61%
16:00 +28°C° 0.4 mm 5 mps 745 mmHg 67%
17:00 +27°C° 0.4 mm 5 mps 745 mmHg 73%
18:00 +26°C° 0.1 mm 4 mps 745 mmHg 77%
19:00 +24°C° 0.1 mm 3 mps 745 mmHg 80%
20:00 +23°C° 0.1 mm 2 mps 745 mmHg 84%
21:00 +21°C° 0.1 mm 2 mps 746 mmHg 87%
22:00 +21°C° 0.1 mm 2 mps 746 mmHg 90%
23:00 +20°C° 0.1 mm 2 mps 747 mmHg 93%

28 July, Wednesday

Time Temperature Precipitation Wind Pressure Humidity
00:00 +19°C° 0 mm 2 mps 747 mmHg 93%
01:00 +19°C° 0 mm 2 mps 747 mmHg 94%
02:00 +19°C° 0 mm 2 mps 746 mmHg 94%
03:00 +19°C° 0 mm 2 mps 746 mmHg 94%
04:00 +18°C° 0 mm 2 mps 747 mmHg 94%
05:00 +18°C° 0 mm 2 mps 747 mmHg 94%
06:00 +20°C° 0 mm 2 mps 747 mmHg 88%
07:00 +21°C° 0 mm 2 mps 747 mmHg 82%
08:00 +24°C° 0 mm 2 mps 747 mmHg 76%
09:00 +26°C° 0 mm 2 mps 747 mmHg 67%
10:00 +28°C° 0 mm 2 mps 747 mmHg 58%
11:00 +29°C° 0 mm 2 mps 747 mmHg 49%
12:00 +30°C° 0 mm 2 mps 747 mmHg 46%
13:00 +31°C° 0 mm 2 mps 747 mmHg 43%
14:00 +31°C° 0 mm 2 mps 746 mmHg 40%
15:00 +31°C° 0 mm 2 mps 746 mmHg 41%
16:00 +31°C° 0 mm 2 mps 746 mmHg 43%
17:00 +31°C° 0 mm 1 mps 746 mmHg 44%
18:00 +29°C° 0 mm 1 mps 746 mmHg 49%
19:00 +27°C° 0 mm 1 mps 746 mmHg 54%
20:00 +26°C° 0 mm 1 mps 745 mmHg 59%
21:00 +25°C° 0 mm 1 mps 745 mmHg 61%
22:00 +24°C° 0 mm 1 mps 745 mmHg 62%
23:00 +24°C° 0 mm 1 mps 745 mmHg 64%

29 July, Thursday

Time Temperature Precipitation Wind Pressure Humidity
00:00 +23°C° 0 mm 1 mps 745 mmHg 70%
01:00 +21°C° 0 mm 2 mps 745 mmHg 76%
02:00 +20°C° 0 mm 2 mps 745 mmHg 81%
03:00 +20°C° 0.3 mm 2 mps 745 mmHg 85%
04:00 +20°C° 0.3 mm 2 mps 745 mmHg 88%
05:00 +19°C° 0.3 mm 2 mps 745 mmHg 91%
06:00 +20°C° 0.5 mm 2 mps 745 mmHg 89%
07:00 +21°C° 0.5 mm 2 mps 745 mmHg 88%
08:00 +21°C° 0.5 mm 2 mps 746 mmHg 86%
09:00 +22°C° 0.1 mm 3 mps 746 mmHg 80%
10:00 +25°C° 0.1 mm 3 mps 746 mmHg 75%
11:00 +26°C° 0.1 mm 4 mps 746 mmHg 69%
12:00 +26°C° 0.1 mm 4 mps 746 mmHg 66%
13:00 +27°C° 0.1 mm 4 mps 746 mmHg 63%
14:00 +27°C° 0.1 mm 4 mps 746 mmHg 59%
15:00 +27°C° 0 mm 4 mps 746 mmHg 58%
16:00 +27°C° 0 mm 3 mps 746 mmHg 56%
17:00 +28°C° 0 mm 3 mps 746 mmHg 54%
18:00 +26°C° 0 mm 3 mps 745 mmHg 58%
19:00 +25°C° 0 mm 2 mps 745 mmHg 62%
20:00 +24°C° 0 mm 2 mps 745 mmHg 66%
21:00 +23°C° 0 mm 1 mps 745 mmHg 68%
22:00 +22°C° 0 mm 1 mps 745 mmHg 69%
23:00 +21°C° 0 mm 1 mps 745 mmHg 71%

30 July, Friday

Time Temperature Precipitation Wind Pressure Humidity
00:00 +21°C° 0 mm 1 mps 745 mmHg 73%
01:00 +19°C° 0 mm 2 mps 745 mmHg 74%
02:00 +19°C° 0 mm 2 mps 745 mmHg 75%
03:00 +19°C° 0 mm 2 mps 745 mmHg 77%
04:00 +18°C° 0 mm 2 mps 745 mmHg 79%
05:00 +18°C° 0 mm 2 mps 745 mmHg 81%
06:00 +20°C° 0 mm 2 mps 744 mmHg 75%
07:00 +23°C° 0 mm 2 mps 744 mmHg 70%
08:00 +25°C° 0 mm 2 mps 744 mmHg 64%
09:00 +27°C° 0 mm 3 mps 744 mmHg 58%
10:00 +28°C° 0 mm 3 mps 744 mmHg 51%
11:00 +30°C° 0 mm 3 mps 743 mmHg 45%
12:00 +32°C° 0 mm 4 mps 743 mmHg 43%
13:00 +33°C° 0 mm 4 mps 743 mmHg 40%
14:00 +34°C° 0 mm 4 mps 742 mmHg 38%
15:00 +34°C° 0 mm 4 mps 742 mmHg 40%
16:00 +33°C° 0 mm 3 mps 741 mmHg 42%
17:00 +33°C° 0 mm 3 mps 741 mmHg 43%
18:00 +29°C° 2 mm 4 mps 741 mmHg 59%
19:00 +26°C° 2 mm 4 mps 741 mmHg 74%
20:00 +22°C° 2 mm 5 mps 741 mmHg 89%
21:00 +21°C° 2.6 mm 4 mps 741 mmHg 91%
22:00 +20°C° 2.6 mm 3 mps 741 mmHg 94%
23:00 +20°C° 2.6 mm 2 mps 741 mmHg 96%
Show more